www.pogodaiklimat.ru

Погода и климат >> Архив погоды >> Россия >> Якутия >> Охотский Перевоз


ПОГОДА в Охотском Перевозе

  • Прогноз погоды в Охотском Перевозе
  • Монитор погоды в Охотском Перевозе
  • Климат города

АРХИВ ПОГОДЫ в Охотском Перевозе

Время (UTC), дата Ветер
(напр.,м/с)
 
Видим.   Явления Облачность Т
(С)
Тd
(С)
f
(%)
Тe
(С)
Тes
(С)
Комфортность P
(гПа)
Po
(гПа)
Тmin
(С)
Tmax
(С)
R
(мм)
R24
(мм)
S
(см)
03 16.09 С 2 50 км 8/0
[Ci fib]
+11.6 +0.8 47 +11 +15 1001.4 984.7
06 16.09 С 3 50 км 8/0
[Ci]
+15.6 -1.3 31 +15 +17 1000.5 984.0
09 16.09 штиль 0 20 км 8/0
[Ci fib]
+11.6 +2.9 55 +11 +11 1000.6 983.9 +16.2
12 16.09 штиль 0 10 км 3/0
[Ci fib]
+4.1 +1.3 82 +3 +3 1001.5 984.3
15 16.09 штиль 0 10 км 3/0
[Ci fib]
+0.5 +4.2 100 -1 -1 1001.9 984.4
18 16.09 ЮЗ 2 10 км 4/0
[Ci fib]
-1.0 -1.3 98 -5 -5 1002.2 984.6
21 16.09 СЗ 1 20 км 6/0
[As trans Ci fib]
-1.9 -2.2 98 -4 -4 1002.6 985.0 -1.9
00 17.09 СВ 1 20 км 8/0
[Ci fib]
+2.4 +0.8 89 +1 +3 1002.5 985.2
06 17.09 штиль 0 50 км 9/0
[Cs]
+12.0 +2.3 51 +12 +15 1001.9 985.2
09 17.09 Ю 2 20 км 6/0
[Cs]
+11.0 +1.5 52 +10 +10 1002.7 985.9 +12.9
12 17.09 Ю 1 10 км 1/0
[Ci fib]
+2.7 +1.7 93 +1 +1 1003.7 986.4
15 17.09 С 1 10 км ясно -0.7 -1.0 98 -3 -3 1004.7 987.1
21 17.09 З 1 20 км 1/0
[Ci fib]
-2.8 -3.2 97 -5 -5 1006.7 988.9 -3.0
00 18.09 Ю 1 20 км 6/0
[Ci fib]
+2.9 +0.8 86 +1 +4 1007.0 989.6
03 18.09 В 1 50 км 1/0
[Ci fib]
+8.4 +0.1 56 +8 +14 1006.6 989.6
06 18.09 СВ 1 50 км 3/0
[Ci fib]
+12.7 -0.8 39 +13 +16 1006.4 989.6
09 18.09 С 1 20 км 8/0
[Ac trans Cs]
+8.9 +1.1 58 +9 +9 1007.2 990.2 +13.6
12 18.09 Ю 1 10 км 1/0
[Ci fib]
+2.5 +0.1 84 +1 +1 1008.0 990.6
15 18.09 Ю 1 10 км ясно -1.1 -2.0 94 -3 -3 1008.2 990.5
18 18.09 СЗ 1 10 км ясно -2.4 -3.0 96 -5 -5 1008.5 990.8
21 18.09 Ю 1 20 км 3/0
[Ac trans Ci fib]
-3.5 -4.3 94 -6 -6 1008.9 991.1 -3.5
00 19.09 Ю 1 20 км 1/0
[Ci fib]
+3.5 0.0 78 +2 +5 1008.3 991.0
03 19.09 ЮВ 3 50 км ясно +7.5 +2.7 72 +5 +9 1007.5 990.4
06 19.09 С 3 50 км 1/0
[Ac trans]
+11.9 +0.6 46 +11 +12 1006.8 990.0
09 19.09 СЗ 2 20 км 1/0
[Ci fib]
+10.7 +0.2 48 +10 +10 1007.3 990.4 +13.0
12 19.09 Ю 1 10 км ясно +5.4 -0.1 68 +5 +5 1008.6 991.4
15 19.09 З 1 10 км ясно +2.9 -1.0 75 +2 +2 1009.1 991.7
18 19.09 ЮЗ 1 10 км 9/0
[As op]
+3.0 -0.8 76 +2 +2 1009.7 992.3
21 19.09 З 1 20 км 9/0
[Ac trans]
+1.7 -0.8 83 0 0 1010.7 993.2 +1.1
00 20.09 Ю 1 50 км 9/0
[Ac trans]
+4.3 +0.4 76 +3 +4 1011.3 993.9
03 20.09 Ю 3 50 км 9/0
[Ac und]
+7.2 +1.3 66 +5 +6 1011.3 994.1
06 20.09 ЮВ 3 50 км 10/0
[Ac und]
+9.7 +1.8 58 +8 +8 1011.2 994.2
09 20.09 штиль 0 20 км 10/10 1000 м
[Sc]
+10.0 +3.1 62 +10 +10 1011.7 994.7 +11.1
12 20.09 С 1 10 км 9/9 1000 м
[Sc]
+8.4 +0.7 58 +8 +8 1013.0 995.9
15 20.09 штиль 0 10 км 10/10 1000 м
[Sc]
+5.7 -0.3 65 +5 +5 1013.6 996.3
21 20.09 ЮЗ 1 20 км 9/1 1000 м
[Sc Cc]
+0.7 -0.1 94 -1 -1 1014.9 997.3 +0.7
00 21.09 ЮВ 2 20 км 9/0
[Ci fib]
+5.1 +0.7 73 +3 +5 1015.5 998.1
03 21.09 ЮВ 3 20 км 8/0
[Cs]
+8.7 +1.7 61 +7 +10 1015.2 998.0
06 21.09 З 2 20 км 8/3 600 м
[Cu Sc Ci fib]
+12.8 +0.4 43 +12 +14 1014.8 997.8
09 21.09 СЗ 1 20 км 6/1 1000 м
[Sc Ci fib]
+8.6 -0.9 51 +8 +8 1015.6 998.4 +13.1
12 21.09 Ю 1 10 км 3/0
[Ci fib]
+2.1 -1.0 80 +1 +1 1017.4 999.8
15 21.09 Ю 1 10 км 1/0
[Ac trans]
+2.1 -2.2 73 +1 +1 1018.1 1000.5
18 21.09 Ю 1 10 км 4/0
[Ac trans]
+0.3 -1.4 88 -2 -2 1018.4 1000.7
21 21.09 Ю 1 20 км 3/0
[Ac trans]
-2.1 -3.3 91 -4 -4 1019.4 1001.5 -2.1
00 22.09 Ю 1 20 км 3/0
[Ac trans]
+3.5 -2.5 65 +2 +5 1019.6 1002.1
03 22.09 ЮЗ 3 20 км 3/0
[Ac trans]
+7.6 -2.7 48 +5 +8 1019.1 1001.9
06 22.09 ЮЗ 3 20 км 4/0
[Ac trans Ci fib]
+11.1 -3.9 35 +10 +11 1017.4 1000.3
09 22.09 СЗ 2 20 км 10/0
[As op]
+8.8 -1.7 48 +8 +8 1017.6 1000.4 +11.6
12 22.09 Ю 2 10 км 10/0
[As op]
+7.0 +1.0 66 +5 +5 1018.1 1000.8
15 22.09 Ю 4 10 км 10/0
[As op]
+6.7 0.0 62 +3 +3 1016.1 998.0
21 22.09 Ю 3 20 км 10/0
[As op]
+6.3 -1.8 56 +4 +4 1012.9 995.7 +6.3

 

Местоположение метеостанции Охотский Перевоз (Якутия, Россия): широта 61.87 долгота 135.50 высота над уровнем моря 141 м.

В архиве по умолчанию представлена погода в Охотском Перевозе за последнюю неделю. Архивные данные за месяц целиком и за предыдущие месяцы, начиная с января 2011 года, Вы можете получить, выбрав интересующий диапазон дат из раскрывающегося списка и нажав кнопку "Ввод!".


*Определитесь, кто Вы:
робот инопланетянин человек

Внимание! Время в таблицах - всемирное. Для получения местного времени необходимо прибавить поправку, которая в Охотском Перевозе равна 9 ч.

Смотрите также архив погоды в соседних городах и на ближайших метеорологических станциях:

Погода в Ытык-Кюёле (Якутия, Россия) (118 км)
Погода в Крест-Хальджае (Якутия, Россия) (120 км)
Погода в Теплом Ключе (Якутия, Россия) (121 км)
Погода в Чурапче (Якутия, Россия) (153 км)
Погода в Усть-Мае (Якутия, Россия) (179 км)
Погода в Амге (Якутия, Россия) (220 км)
Погода в Томпо (Якутия, Россия) (232 км)
Погода в Верхоянском Перевозе (Якутия, Россия) (241 км)
Погода в Восточной (Якутия, Россия) (259 км)
Погода в Югоренке (Якутия, Россия) (260 км)

Пояснения к столбцам:

Ветер - указаны скорость ветра в м/с - средняя за 10 мин, порывы в срок и между сроками (в фигурных скобках) и направление, откуда дует ветер: С - северный, СВ - северо-восточный, В - восточный, ЮВ - юго-восточный, Ю - южный, ЮЗ - юго-западный, З - западный, СЗ - северо-западный.
Видимость - горизонтальная дальность видимости в метрах или километрах. При видимости от 1 до 10 км при отсутствии осадков обычно наблюдается дымка, при ухудшении видимости до 1 км и менее - туман. В сухую погоду видимость может ухудшаться дымом, пылью или мглою.
Явления - указаны атмосферные явления, наблюдавшиеся в срок или в последний час перед сроком; фигурными скобками обозначены явления, наблюдавшиеся между сроками (за 1-3 часа до срока); квадратными скобками обозначены град или гололедные отложения с указанием их диаметра в мм.
Облачность - указаны через наклонную черту общая и нижняя облачность в баллах и высота нижней границы облаков в метрах; квадратными скобками обозначены формы облаков: Ci - перистые, Cs - перисто-слоистые, Cc - перисто-кучевые, Ac - высококучевые, As - высокослоистые, Sc - слоисто-кучевые, Ns - слоисто-дождевые, Cu - кучевые, Cb - кучево-дождевые. Подробнее классификацию облаков см. в Атласе облаков (PDF).
T - Температура воздуха - температура, измеренная на высоте 2 м над землей.
Td - Температура точки росы - температура, при понижении до которой содержащийся в воздухе водяной пар достигнет насыщения.
f - Относительная влажность воздуха - влажноcть воздуха, измеренная на высоте 2 м над землей.
Te - Эффективная температура - температура, которую ощущает одетый по сезону человек в тени. Характеристика душности погоды. При расчете учитывается влияние влажности воздуха и скорости ветра на теплоощущения человека.
Tes - Эффективная температура на солнце - температура, которую ощущает человек, с поправкой на солнечный нагрев. Характеристика знойности погоды. Зависит от высоты солнца над горизонтом, облачности и скорости ветра. Ночью, в пасмурную погоду, а также при ветре 12 м/с и более поправка равна нулю.
P - Атмосферное давление - приведенное к уровню моря атмосферное давление.
Po - Атмосферное давление - измеренное на уровне метеостанции атмосферное давление.
Tmin - Минимальная температура - минимум температуры воздуха на высоте 2 м над землей.
Tmax - Максимальная температура - максимум температуры воздуха на высоте 2 м над землей.
R - Количество осадков - Количество выпавших осадков за период времени, мм. При наведении курсора мыши на число - период времени, за который выпало указанное количество осадков.
R24 - Количество осадков - Количество выпавших осадков за 24 часа, мм.
S - Снежный покров - Высота снежного покрова, см. При наведении курсора мыши на число - состояние снежного покрова и степень покрытия местности в баллах.